Wetbulb
64.14 62.20 62.50 61.13 52.67 50.75 45.90 46.10 50.18 48.54 49.43 52.90 53.14 51.99 50.19 51.90 49.70 47.84 63.01 67.14 67.16 69.57 72.46 73.17 73.21 73.92 73.97 73.55 73.10 72.67 73.05 72.56 72.24 71.82 71.85 71.72 71.45 71.56 72.29 71.53 71.31 70.61 69.99 69.19 68.09 66.98 65.63 64.79 65.09
61.77 60.00 61.12 57.45 49.33 44.44 45.05 48.74 48.00 50.03 51.76 53.20 52.75 52.40 51.15 49.81 55.72 58.66 61.67 65.23 67.47 69.15 71.83 72.97 71.96 73.53 73.73 73.42 73.11 73.03 72.81 72.15 71.66 71.09 70.76 70.71 71.66 72.62 72.07 71.58 71.38 70.60 70.02 69.27 68.35 66.65 64.76 63.66 63.41
61.10 58.58 56.86 52.83 48.98 44.95 45.11 48.76 50.03 51.12 52.33 52.03 51.29 53.71 52.66 51.87 57.20 59.20 64.54 66.05 68.09 69.19 71.46 72.77 71.90 73.08 73.43 73.17 72.82 72.67 72.50 71.93 71.28 70.92 70.77 70.61 71.05 72.01 71.75 71.34 70.82 69.85 69.03 68.40 67.54 66.14 63.92 62.44 62.50
59.49 58.67 55.51 49.12 45.90 47.47 47.87 49.40 51.52 50.79 51.84 52.87 52.68 50.06 53.92 58.85 59.35 62.65 66.17 66.65 67.39 69.13 71.02 71.12 72.21 73.13 73.19 73.21 72.62 72.25 72.33 72.01 71.55 71.27 71.36 71.41 70.80 70.72 71.16 71.05 70.04 68.30 67.73 67.11 66.13 65.17 62.55 61.50 62.12
58.31 56.25 49.97 47.51 46.18 47.39 49.67 51.28 51.77 50.41 50.16 51.18 51.77 49.49 52.08 56.58 62.27 63.85 64.44 65.87 66.66 68.94 70.22 72.22 71.54 72.55 72.50 72.35 72.27 72.29 71.92 71.98 71.70 71.35 71.41 71.63 71.02 71.11 71.05 69.96 69.38 67.88 67.03 66.54 65.32 64.09 61.54 60.51 61.18
54.48 54.64 47.24 45.11 46.10 47.93 50.10 51.69 50.85 49.89 49.86 50.14 49.97 49.71 52.02 57.16 58.56 63.02 64.39 66.68 67.75 68.97 70.10 71.15 69.04 69.65 71.46 71.91 72.00 71.96 72.07 71.82 71.04 71.18 71.18 70.70 70.76 70.60 70.19 69.23 68.40 67.74 67.03 66.33 64.53 63.17 60.76 59.16 59.58
52.71 50.45 47.29 47.12 46.60 46.99 49.27 51.66 49.70 49.54 49.55 50.12 51.95 49.00 52.55 53.06 56.32 61.62 61.89 62.32 63.42 67.36 69.39 70.12 70.61 70.02 66.95 68.53 70.13 70.78 71.08 71.11 71.09 71.12 70.94 70.50 70.06 69.84 68.45 68.92 68.39 67.52 66.72 65.80 64.05 62.53 60.37 58.26 57.95
53.40 50.99 46.61 47.44 46.30 46.74 50.55 50.39 51.35 50.66 50.13 52.81 52.98 49.60 50.25 52.05 54.39 59.25 58.50 58.60 58.76 59.52 61.52 63.53 68.25 69.36 70.29 71.45 66.31 66.52 67.88 69.71 69.98 69.79 69.08 68.26 68.15 68.16 66.82 66.13 67.89 67.23 66.17 65.24 63.68 61.90 59.84 56.84 55.10
53.41 47.43 45.48 46.37 46.87 48.41 50.73 49.31 51.51 52.53 51.10 51.46 51.64 51.68 50.99 52.18 54.48 56.24 56.74 56.01 56.16 55.41 55.96 57.35 59.00 63.46 67.53 68.55 68.08 65.05 64.41 66.32 66.93 67.48 65.99 65.73 69.97 69.72 66.54 64.66 66.30 67.20 66.18 64.78 63.51 61.86 58.88 54.06 52.28
50.79 47.35 46.10 49.65 50.00 49.33 50.46 50.28 50.66 49.79 49.86 50.07 50.12 50.99 51.49 52.39 53.08 53.02 53.04 53.08 53.10 53.41 54.49 55.29 56.46 57.74 60.46 65.93 68.42 69.55 70.04 70.74 70.58 70.37 70.33 69.92 69.86 69.29 67.93 63.96 63.42 64.75 64.82 64.97 63.40 60.69 57.73 57.57 56.63
50.16 46.78 47.56 48.87 50.11 51.06 50.19 49.68 51.34 49.73 48.78 50.80 50.50 50.69 50.48 51.09 51.15 51.10 51.21 51.34 51.48 53.07 54.53 55.30 56.06 57.09 58.00 62.98 67.11 68.97 69.93 70.19 69.86 70.24 70.04 69.60 69.29 68.44 67.26 65.28 64.43 65.12 61.82 64.54 62.68 60.43 61.57 60.80 58.23
47.68 48.60 48.91 50.10 50.58 49.88 49.44 51.25 49.76 50.63 50.83 51.33 51.17 51.17 50.38 49.79 49.40 48.86 49.12 49.91 51.05 52.76 54.18 55.82 56.57 57.80 58.86 58.92 66.48 67.92 68.39 69.15 69.35 69.16 68.88 68.83 68.73 68.21 66.42 65.24 65.45 66.32 64.34 63.72 61.76 60.30 58.82 59.02 57.50
48.59 49.05 49.73 50.79 50.04 50.11 50.36 49.58 49.79 50.17 50.38 49.97 49.19 49.34 48.85 48.58 48.34 48.92 49.17 50.45 51.34 51.97 53.88 55.68 57.26 58.04 59.55 58.97 65.04 67.52 66.95 66.90 66.52 66.21 65.71 66.98 67.13 66.93 67.17 66.02 65.83 64.20 63.96 63.80 62.47 60.38 58.09 56.72 56.30
49.53 49.12 49.24 49.81 49.78 49.61 47.69 48.98 48.66 50.52 50.24 48.81 48.70 48.39 47.84 47.12 46.92 48.53 48.28 48.88 49.76 51.92 53.87 54.50 54.96 59.25 58.41 60.81 61.68 61.15 61.05 59.79 59.09 58.74 60.98 62.92 63.74 62.71 62.64 62.23 61.51 61.22 61.53 60.25 58.40 57.22 56.53 54.50 53.62
48.84 46.20 48.68 49.13 48.95 47.83 48.65 46.11 45.47 50.77 48.93 48.07 48.14 47.92 47.02 46.15 46.84 46.25 46.72 47.56 49.14 52.08 52.63 50.82 53.93 55.69 56.62 55.82 54.27 53.85 54.27 54.17 54.06 54.40 56.42 58.04 59.71 61.12 59.02 57.62 56.71 56.72 57.18 56.69 55.89 54.52 54.61 55.52 54.49
46.32 46.65 44.45 48.22 47.40 47.14 47.39 45.27 49.91 48.52 47.87 47.28 47.77 47.76 46.61 44.63 45.16 45.83 46.13 47.09 49.22 52.03 48.87 49.79 52.15 51.72 50.88 49.95 49.41 50.19 50.39 51.38 51.19 52.85 54.06 54.94 56.21 56.49 56.88 55.99 54.32 54.43 53.93 53.65 52.33 51.89 51.38 51.51 50.82
46.20 43.16 45.02 46.19 47.95 46.87 46.00 46.53 47.49 48.14 48.11 47.91 47.95 47.73 46.56 45.12 44.86 44.88 45.66 46.77 48.57 51.27 48.34 48.75 49.82 48.61 47.55 47.11 47.42 47.18 47.92 48.96 49.94 50.43 51.19 51.96 52.00 51.62 52.00 51.93 52.05 51.79 51.58 52.43 53.08 52.81 52.61 51.98 51.91
43.95 43.65 45.15 44.50 46.23 45.56 45.58 45.38 47.47 47.21 47.49 48.35 48.82 47.83 46.37 45.34 43.24 43.91 45.05 46.26 48.56 50.78 48.37 48.12 48.73 47.67 46.94 46.64 46.60 46.90 46.56 46.81 48.83 49.14 49.72 50.23 50.64 52.16 52.90 52.59 52.10 52.81 52.06 51.58 53.47 53.06 52.41 50.00 49.38
46.12 44.54 44.05 47.03 46.03 43.95 45.49 46.10 47.94 48.07 47.00 47.51 48.78 47.83 46.32 44.57 43.81 44.18 44.64 46.41 48.07 50.07 47.12 47.93 48.01 47.98 48.31 47.55 47.48 46.82 45.96 45.91 44.88 45.09 46.18 46.52 47.47 48.57 48.99 48.70 49.26 49.32 48.30 48.20 49.03 50.83 49.48 47.95 48.37
44.40 43.07 43.54 46.74 45.23 43.18 44.51 44.56 47.42 48.74 47.64 48.17 48.72 48.13 46.46 43.76 42.75 42.90 43.96 45.56 47.11 48.52 47.07 46.51 46.39 47.94 49.16 49.73 48.59 46.86 45.09 44.13 43.01 42.76 42.24 42.71 42.88 43.44 43.78 44.22 44.35 44.96 43.95 43.85 44.69 46.03 47.30 46.84 46.33
43.46 42.52 43.43 43.57 43.20 43.52 43.08 41.97 44.53 47.85 49.18 49.12 47.70 49.24 47.17 44.11 42.80 42.07 42.47 44.18 45.81 46.56 47.26 46.81 47.25 48.43 48.33 47.18 45.64 44.13 43.54 43.08 41.07 40.00 39.16 39.65 40.02 40.31 41.37 40.82 40.90 40.64 40.56 38.98 39.88 40.75 40.96 40.50 43.55
41.31 46.31 43.80 42.64 40.73 38.38 43.72 36.68 44.87 47.44 45.10 44.60 44.68 45.66 44.90 44.05 43.47 42.65 41.70 42.80 44.01 43.95 45.07 45.95 46.08 46.40 46.54 46.61 45.64 44.74 42.88 39.29 38.89 38.00 38.11 37.93 38.52 38.45 39.24 39.27 39.15 39.22 39.15 38.26 38.37 38.68 38.53 39.01 36.37
42.96 44.05 43.26 42.80 40.50 40.31 41.07 36.85 42.98 47.10 45.03 44.11 43.75 43.90 44.13 43.60 42.45 41.34 41.57 41.17 41.29 42.39 43.18 43.78 43.39 43.07 44.10 45.02 44.94 42.73 39.59 39.11 38.45 37.85 36.73 36.45 36.68 37.02 37.05 37.38 37.58 37.11 37.38 37.24 36.83 36.67 36.70 36.77 36.09
44.04 42.14 40.85 40.78 40.33 33.40 38.98 38.96 40.84 43.14 42.50 45.72 43.85 43.26 43.10 42.07 41.74 41.42 40.99 39.95 39.67 40.08 40.88 41.66 41.11 40.66 41.38 41.84 41.78 40.41 38.83 37.98 37.34 36.87 36.02 35.65 35.65 35.55 35.67 35.74 35.87 35.44 35.08 35.09 35.26 35.75 34.68 34.97 34.49
42.43 40.32 35.68 33.08 31.77 32.20 37.59 37.83 41.63 45.62 43.06 44.77 42.93 42.24 42.04 41.66 40.86 39.72 38.38 38.48 38.59 38.58 38.89 38.93 38.79 37.92 39.39 39.86 39.97 39.73 38.90 38.51 37.21 36.55 35.83 35.01 34.37 33.90 33.99 34.51 34.11 33.66 33.66 33.67 34.08 33.85 33.10 32.84 32.33
39.46 41.26 36.78 30.07 31.86 35.20 33.21 32.38 39.84 44.90 43.31 42.02 45.22 42.96 41.73 40.22 40.21 39.44 39.01 38.49 37.64 37.13 37.38 37.41 37.37 36.65 37.73 38.17 38.18 38.60 38.57 37.79 37.07 36.64 36.10 35.17 34.15 33.53 34.01 33.49 33.32 32.88 32.73 32.82 33.01 32.64 31.81 32.14 31.91
39.17 36.99 43.26 35.34 30.44 32.10 37.05 39.26 43.78 39.61 38.64 39.71 41.42 41.08 39.49 39.08 39.42 39.55 39.22 38.50 36.80 36.45 36.55 37.05 36.58 36.51 36.84 36.82 36.79 36.66 36.85 36.23 35.43 35.47 35.36 34.55 34.15 33.17 33.09 33.37 32.66 32.49 32.18 32.02 32.51 31.84 31.09 32.06 32.02
41.22 43.47 33.95 35.43 30.72 29.55 36.20 37.94 38.83 36.98 38.68 38.79 38.51 38.95 39.16 39.51 39.87 39.72 38.58 37.65 37.48 37.32 37.22 37.11 36.77 35.84 36.16 36.19 36.18 35.61 35.47 35.36 35.06 34.86 33.97 33.69 32.55 32.76 32.54 32.32 32.24 31.79 31.52 31.13 31.42 31.01 31.06 29.88 30.57
36.89 36.90 38.22 39.03 37.34 33.20 31.76 37.05 45.45 44.56 43.24 40.20 39.35 40.22 40.25 39.95 39.93 39.59 38.94 38.28 37.90 37.80 36.97 36.32 36.06 35.63 35.24 35.45 35.15 34.78 34.28 34.38 34.46 34.14 33.75 33.31 32.88 32.48 31.72 31.40 30.89 30.27 29.78 29.42 29.48 29.04 28.44 27.73 28.19
42.46 40.09 39.44 34.69 31.24 33.96 34.90 36.69 41.41 46.30 46.15 43.30 41.67 41.37 41.99 41.24 40.76 40.45 39.80 38.53 37.29 36.69 36.37 35.99 35.94 35.53 35.20 35.06 34.53 34.09 33.82 33.74 33.54 33.24 33.29 33.40 32.06 32.02 30.73 29.96 29.41 28.79 28.33 28.13 27.44 26.95 27.28 26.33 26.11
MSLP
1012.68 1011.91 1011.40 1010.52 1009.70 1008.51 1009.21 1010.30 1010.47 1010.64 1010.76 1011.50 1011.68 1011.32 1011.62 1011.88 1012.26 1013.50 1014.81 1015.12 1015.52 1015.49 1015.98 1017.06 1017.49 1017.76 1018.09 1018.37 1018.62 1018.79 1018.88 1019.07 1019.19 1019.37 1019.45 1019.51 1019.60 1019.62 1019.72 1019.82 1020.03 1020.16 1020.27 1020.45 1020.52 1020.59 1020.55 1020.48 1020.37
1012.35 1011.93 1011.21 1009.70 1008.76 1008.20 1009.40 1010.23 1010.51 1011.00 1011.53 1011.83 1011.92 1011.82 1011.69 1012.66 1013.20 1014.02 1014.46 1015.47 1015.71 1015.64 1016.09 1016.73 1017.62 1017.86 1018.22 1018.57 1018.78 1018.91 1019.10 1019.24 1019.37 1019.52 1019.62 1019.76 1019.81 1019.85 1020.00 1020.20 1020.30 1020.35 1020.46 1020.72 1020.78 1020.94 1020.93 1020.76 1020.74
1012.63 1012.07 1010.29 1009.13 1008.64 1008.33 1009.31 1010.25 1010.74 1011.49 1011.90 1011.85 1011.83 1012.23 1012.35 1013.43 1014.12 1014.54 1015.61 1015.71 1015.71 1015.86 1016.22 1016.78 1017.76 1018.06 1018.33 1018.58 1018.96 1019.14 1019.25 1019.41 1019.62 1019.82 1019.97 1020.10 1020.16 1020.23 1020.32 1020.44 1020.54 1020.68 1020.81 1020.92 1021.08 1021.24 1021.22 1021.14 1021.06
1012.00 1011.19 1010.35 1009.21 1008.95 1009.86 1009.85 1010.49 1011.02 1011.47 1011.89 1012.19 1012.06 1012.42 1013.80 1015.16 1015.12 1015.76 1016.04 1015.91 1015.84 1016.24 1016.50 1017.48 1017.99 1018.24 1018.50 1018.80 1019.07 1019.22 1019.39 1019.58 1019.74 1019.90 1020.04 1020.18 1020.30 1020.50 1020.62 1020.69 1020.87 1021.09 1021.11 1021.25 1021.49 1021.59 1021.62 1021.58 1021.42
1011.79 1010.50 1009.44 1009.31 1009.84 1010.40 1010.79 1011.08 1011.38 1011.32 1011.65 1011.91 1012.40 1012.74 1014.15 1015.64 1015.99 1016.14 1016.24 1016.26 1016.11 1016.49 1016.82 1017.50 1018.30 1018.51 1018.69 1018.97 1019.20 1019.41 1019.61 1019.73 1019.86 1019.97 1020.08 1020.22 1020.42 1020.59 1020.67 1020.82 1020.92 1021.17 1021.33 1021.49 1021.79 1021.89 1022.00 1022.00 1021.91
1010.89 1010.41 1009.27 1009.25 1009.80 1010.73 1011.13 1011.53 1011.59 1011.52 1011.93 1012.35 1012.47 1013.13 1015.06 1016.25 1016.39 1016.64 1016.68 1016.69 1016.56 1016.95 1017.31 1017.47 1018.35 1018.67 1018.81 1018.92 1019.09 1019.20 1019.43 1019.72 1019.91 1020.05 1020.20 1020.36 1020.59 1020.72 1020.87 1020.94 1021.02 1021.19 1021.43 1021.78 1022.02 1022.18 1022.28 1022.25 1022.29
1010.98 1010.36 1009.35 1009.31 1010.01 1010.75 1011.18 1011.97 1011.77 1011.80 1012.15 1012.67 1013.17 1013.20 1015.28 1016.46 1017.07 1017.02 1017.17 1017.30 1017.54 1017.58 1017.50 1017.67 1017.85 1018.40 1018.85 1018.94 1018.97 1019.10 1019.24 1019.51 1019.76 1019.96 1020.18 1020.43 1020.71 1020.82 1021.05 1021.16 1021.27 1021.40 1021.64 1021.97 1022.23 1022.36 1022.50 1022.61 1022.69
1011.59 1010.74 1010.21 1009.89 1010.16 1010.68 1011.62 1012.08 1012.38 1012.33 1012.58 1013.45 1013.78 1013.69 1015.19 1016.76 1017.33 1017.29 1017.46 1017.70 1018.02 1018.36 1018.43 1018.47 1018.42 1018.60 1018.64 1018.54 1018.99 1019.22 1019.41 1019.51 1019.71 1020.00 1020.24 1020.45 1020.65 1020.80 1020.99 1021.17 1021.48 1021.69 1021.89 1022.05 1022.26 1022.51 1022.64 1022.80 1022.97
1012.35 1010.96 1010.17 1010.27 1010.44 1010.77 1012.14 1012.16 1012.79 1013.25 1013.13 1013.72 1014.60 1015.24 1016.75 1017.24 1017.27 1017.32 1017.52 1017.79 1018.25 1018.66 1018.90 1018.98 1018.99 1018.82 1018.92 1018.92 1018.99 1019.50 1019.71 1019.86 1019.99 1020.12 1020.31 1020.56 1020.37 1020.67 1021.13 1021.38 1021.47 1021.61 1021.93 1022.26 1022.46 1022.52 1022.70 1022.83 1022.93
1012.11 1011.24 1010.59 1011.06 1011.07 1011.47 1012.23 1012.44 1012.80 1013.23 1013.36 1013.95 1015.30 1016.40 1017.00 1017.28 1017.42 1017.61 1017.85 1018.11 1018.56 1018.95 1019.16 1019.33 1019.36 1019.27 1019.08 1019.00 1018.98 1019.07 1019.05 1019.22 1019.37 1019.50 1019.53 1019.92 1019.95 1020.22 1020.77 1021.40 1021.80 1021.80 1022.11 1022.33 1022.57 1022.79 1022.82 1022.68 1022.67
1012.34 1011.58 1011.97 1012.25 1012.41 1012.32 1012.72 1013.03 1013.28 1013.28 1013.43 1013.74 1014.69 1016.14 1017.21 1017.61 1018.02 1018.30 1018.60 1019.05 1019.35 1019.43 1019.41 1019.58 1019.58 1019.55 1019.36 1018.87 1018.90 1018.88 1019.07 1019.20 1019.21 1019.28 1019.56 1019.78 1020.22 1020.61 1020.89 1021.57 1021.88 1021.96 1022.24 1022.41 1022.80 1023.08 1022.90 1022.84 1022.81
1012.60 1012.74 1012.73 1013.08 1013.42 1013.53 1013.40 1013.37 1013.40 1013.62 1014.16 1015.13 1015.90 1016.64 1017.45 1017.90 1018.48 1019.05 1019.39 1019.68 1019.84 1019.77 1019.84 1019.85 1019.84 1019.58 1019.50 1019.49 1019.11 1019.27 1019.40 1019.46 1019.52 1019.62 1020.07 1020.08 1020.55 1020.89 1021.41 1021.59 1021.93 1022.07 1022.47 1022.70 1023.11 1023.27 1023.37 1023.24 1023.20
1013.05 1013.13 1013.43 1013.67 1014.03 1014.05 1014.17 1013.87 1013.78 1013.86 1015.11 1016.09 1016.90 1017.44 1017.93 1018.55 1019.10 1019.57 1019.90 1020.06 1020.21 1020.21 1020.24 1020.19 1020.03 1019.86 1019.43 1019.47 1019.23 1019.69 1020.16 1020.40 1020.64 1020.87 1021.20 1021.06 1021.05 1021.10 1021.44 1021.91 1022.18 1022.60 1022.74 1022.68 1022.82 1023.23 1023.62 1023.86 1023.62
1013.57 1013.66 1013.54 1013.79 1013.99 1014.24 1014.43 1013.99 1014.42 1013.78 1015.22 1016.25 1016.91 1017.59 1018.39 1019.08 1019.62 1019.89 1020.26 1020.40 1020.60 1020.60 1020.60 1020.76 1020.67 1020.01 1019.13 1018.78 1019.71 1020.27 1020.61 1021.17 1021.76 1022.14 1022.10 1021.97 1021.96 1022.18 1022.32 1022.51 1022.77 1022.92 1023.09 1023.29 1023.53 1023.82 1023.85 1024.01 1024.19
1014.05 1013.67 1013.16 1013.28 1013.85 1014.18 1014.64 1014.07 1013.77 1013.88 1015.31 1016.02 1016.73 1017.67 1018.63 1019.45 1019.92 1020.38 1020.81 1020.91 1021.12 1021.07 1021.41 1021.56 1021.30 1020.90 1020.79 1021.07 1021.30 1021.58 1021.65 1021.79 1021.89 1022.28 1022.58 1022.62 1022.71 1022.81 1023.18 1023.53 1023.75 1023.96 1023.96 1023.92 1024.05 1024.21 1024.27 1024.03 1023.97
1013.90 1013.67 1012.82 1012.92 1013.88 1014.49 1014.70 1012.86 1012.56 1014.36 1015.03 1015.68 1016.46 1017.39 1018.56 1019.66 1020.17 1020.75 1021.15 1021.25 1021.37 1021.34 1021.83 1021.97 1021.86 1021.83 1022.07 1022.32 1022.57 1022.75 1023.11 1023.13 1023.52 1023.47 1023.61 1023.74 1023.64 1023.53 1023.78 1024.24 1024.61 1024.75 1024.61 1024.80 1024.84 1024.93 1024.68 1024.72 1024.59
1013.30 1012.47 1012.36 1012.71 1013.55 1013.98 1014.30 1012.75 1013.53 1014.44 1014.71 1015.11 1016.05 1016.99 1018.18 1019.32 1020.14 1020.81 1021.13 1021.31 1021.45 1021.51 1021.98 1022.12 1022.13 1022.13 1022.28 1022.71 1022.88 1023.26 1023.62 1023.83 1024.08 1024.34 1024.63 1024.56 1024.52 1024.67 1024.67 1024.86 1024.99 1025.12 1025.09 1025.14 1025.11 1025.05 1024.99 1024.86 1024.61
1011.85 1012.20 1012.23 1012.63 1013.33 1013.82 1013.54 1013.11 1013.34 1014.08 1014.38 1014.49 1015.32 1016.56 1017.76 1018.83 1019.99 1020.73 1020.96 1021.29 1021.53 1021.77 1022.20 1022.37 1022.47 1022.61 1022.54 1022.55 1022.72 1022.72 1023.28 1023.77 1023.95 1024.21 1024.79 1025.10 1025.04 1024.95 1024.92 1024.98 1025.14 1025.14 1025.10 1025.13 1025.03 1025.11 1025.00 1025.13 1024.97
1012.45 1012.54 1012.36 1012.29 1013.46 1013.92 1013.11 1012.51 1012.34 1013.03 1013.86 1014.02 1014.43 1015.87 1017.20 1018.56 1019.90 1020.73 1021.24 1021.37 1021.65 1021.91 1022.46 1022.52 1022.70 1022.81 1022.89 1023.04 1023.19 1023.40 1023.64 1024.29 1024.91 1025.30 1025.48 1025.26 1025.01 1025.26 1025.67 1025.99 1026.05 1026.03 1026.02 1026.39 1025.97 1025.54 1025.72 1025.77 1025.40
1013.16 1012.95 1012.56 1012.75 1013.63 1014.26 1013.20 1012.30 1012.03 1011.98 1012.40 1013.02 1013.56 1014.94 1016.68 1018.49 1019.72 1020.64 1021.23 1021.56 1021.78 1022.18 1022.63 1023.03 1023.02 1022.85 1022.64 1022.43 1022.64 1023.26 1024.02 1024.76 1025.42 1025.91 1025.89 1026.16 1026.46 1026.26 1026.06 1026.44 1026.87 1026.78 1026.97 1027.04 1026.97 1026.70 1026.20 1026.44 1026.36
1013.31 1013.16 1012.97 1013.20 1014.20 1014.40 1013.57 1011.94 1011.23 1010.89 1011.45 1012.21 1013.69 1014.44 1016.19 1018.08 1019.31 1020.47 1021.18 1021.53 1021.82 1022.28 1022.48 1022.86 1023.06 1023.03 1023.12 1023.26 1023.37 1023.85 1024.64 1025.07 1025.71 1026.38 1026.86 1026.92 1026.91 1027.15 1027.14 1027.22 1027.45 1027.60 1027.76 1027.83 1027.95 1027.81 1027.48 1027.45 1027.39
1013.28 1013.20 1013.79 1014.02 1014.46 1013.72 1013.83 1011.13 1009.94 1010.01 1011.29 1012.74 1014.16 1015.21 1016.58 1017.96 1019.22 1020.29 1021.30 1021.79 1022.01 1022.60 1022.92 1023.08 1023.34 1023.36 1023.42 1023.39 1023.66 1023.73 1024.47 1025.08 1025.91 1026.73 1027.34 1027.78 1027.85 1027.83 1028.00 1027.96 1028.28 1028.37 1028.50 1028.60 1028.60 1028.68 1028.58 1028.42 1028.37
1013.99 1014.31 1014.46 1014.59 1014.66 1014.44 1013.83 1013.18 1009.43 1009.75 1010.39 1011.92 1013.83 1015.37 1016.71 1018.05 1019.24 1020.26 1021.17 1022.12 1022.71 1022.99 1023.13 1023.41 1023.72 1023.86 1023.83 1023.91 1024.13 1024.25 1025.13 1025.91 1026.49 1027.06 1027.58 1028.26 1028.63 1028.75 1028.52 1028.66 1028.61 1029.07 1029.27 1029.71 1029.80 1029.66 1029.38 1029.36 1029.36
1015.27 1015.35 1015.55 1015.61 1015.32 1014.05 1013.23 1012.74 1009.06 1009.56 1010.26 1011.30 1013.39 1015.23 1016.62 1018.10 1019.23 1020.28 1021.32 1022.18 1022.84 1023.38 1023.58 1023.78 1023.96 1024.12 1024.22 1024.54 1024.86 1025.01 1025.51 1026.04 1026.55 1026.94 1027.65 1028.29 1028.80 1029.39 1029.56 1029.64 1029.68 1029.80 1029.92 1030.07 1030.16 1030.50 1030.72 1030.54 1030.24
1015.38 1015.38 1015.21 1015.23 1015.19 1012.96 1012.45 1012.09 1009.35 1009.45 1010.55 1011.39 1013.10 1014.91 1016.53 1018.04 1019.09 1020.04 1021.09 1021.97 1022.75 1023.41 1023.90 1024.22 1024.41 1024.61 1024.72 1024.94 1025.18 1025.66 1026.11 1026.53 1027.04 1027.28 1027.90 1028.69 1029.17 1029.53 1029.89 1030.06 1030.21 1030.47 1030.45 1030.55 1030.65 1030.68 1031.07 1031.08 1030.97
1014.56 1014.39 1014.06 1013.95 1014.00 1013.11 1013.32 1011.07 1009.44 1010.00 1011.19 1012.52 1013.26 1015.10 1016.77 1018.26 1019.22 1020.00 1020.84 1021.69 1022.62 1023.47 1023.93 1024.20 1024.43 1024.68 1025.13 1025.45 1025.91 1026.18 1026.51 1026.99 1027.46 1027.88 1028.31 1028.90 1029.27 1029.94 1030.23 1030.52 1030.80 1030.89 1031.20 1031.01 1031.23 1031.24 1031.75 1031.95 1031.78
1014.26 1014.23 1014.17 1014.36 1014.95 1013.86 1011.34 1010.18 1009.85 1010.85 1011.96 1013.13 1013.97 1015.23 1016.52 1017.82 1018.70 1019.46 1020.46 1021.42 1022.52 1023.37 1023.95 1024.22 1024.47 1024.58 1024.94 1025.55 1026.00 1026.40 1026.94 1027.47 1027.80 1028.31 1028.76 1029.22 1029.57 1030.20 1030.44 1030.33 1030.60 1031.04 1031.12 1031.22 1030.95 1031.42 1031.55 1031.61 1031.96
1013.81 1013.57 1014.55 1014.51 1013.52 1012.03 1009.51 1008.67 1008.32 1009.91 1010.76 1012.40 1013.82 1014.91 1016.23 1017.40 1018.19 1018.94 1019.89 1020.84 1021.79 1022.67 1023.44 1024.01 1024.49 1024.98 1025.16 1025.91 1026.29 1026.61 1027.04 1027.59 1028.33 1028.65 1029.16 1029.58 1030.03 1030.26 1030.33 1030.71 1030.80 1031.07 1031.19 1031.41 1031.34 1031.59 1031.78 1031.72 1032.03
1013.70 1013.44 1013.15 1012.79 1011.95 1010.68 1009.11 1007.19 1006.54 1007.68 1009.07 1010.69 1012.63 1013.84 1015.06 1016.29 1017.21 1018.21 1019.24 1020.30 1021.30 1022.19 1022.85 1023.52 1024.09 1024.59 1025.13 1025.85 1026.58 1027.01 1027.37 1028.07 1028.42 1028.79 1029.12 1029.49 1029.87 1030.06 1030.33 1030.76 1030.93 1030.95 1031.24 1031.71 1031.43 1031.81 1032.06 1032.04 1032.04
1011.75 1011.65 1012.17 1011.65 1011.62 1010.94 1009.65 1006.49 1007.49 1007.53 1008.21 1009.72 1011.20 1012.62 1013.90 1015.18 1016.29 1017.40 1018.54 1019.64 1020.71 1021.73 1022.53 1023.05 1023.95 1024.76 1025.43 1025.70 1026.44 1027.08 1027.47 1027.99 1028.45 1028.81 1029.07 1029.56 1029.96 1030.16 1030.36 1030.76 1031.02 1031.32 1031.57 1031.73 1031.80 1031.97 1032.07 1032.21 1032.12
Wind_Speed
11 6 6 5 6 2 5 5 2 4 6 7 5 8 12 14 11 7 5 7 5 7 13 12 9 12 11 10 10 9 9 9 9 9 9 8 8 7 11 11 11 12 13 14 14 13 13 12 12
9 7 4 4 5 6 7 5 6 7 7 3 3 3 5 12 11 8 6 3 4 6 10 12 9 13 12 11 9 8 9 9 8 8 7 7 8 10 10 9 10 12 12 12 14 13 13 13 12
7 5 5 3 3 5 6 4 8 7 4 1 3 4 3 7 10 6 7 3 3 7 9 10 10 9 10 12 9 9 8 8 8 7 6 6 7 7 7 8 11 12 12 13 13 13 13 13 12
4 5 5 7 4 5 6 6 7 7 4 1 2 8 8 10 5 6 6 4 3 7 6 13 8 7 9 9 9 9 9 9 8 7 7 7 7 6 6 6 11 10 12 14 13 13 14 13 12
4 4 3 2 4 5 3 5 2 4 4 5 1 5 7 7 8 8 7 5 5 6 4 9 6 5 7 9 10 10 8 8 8 7 7 8 7 7 8 9 8 11 13 13 13 13 14 13 13
5 4 5 6 6 6 4 4 3 2 3 6 2 4 8 6 7 6 7 8 6 7 4 6 7 2 3 7 8 10 11 8 7 7 5 6 7 7 7 8 11 12 12 12 12 12 12 13 13
6 5 4 1 8 8 6 4 5 4 5 5 2 1 9 9 6 4 5 7 8 7 5 4 4 9 5 5 6 6 7 9 8 6 5 5 5 6 7 7 9 10 11 12 12 12 11 12 12
4 4 4 6 8 8 7 6 1 3 6 3 3 3 9 6 4 2 4 6 7 7 6 5 2 3 5 7 7 3 5 3 6 5 5 6 6 8 8 9 9 10 10 11 11 10 9 9 10
3 5 6 5 7 6 7 7 4 1 3 2 3 5 5 4 1 3 3 5 4 5 6 6 5 4 2 4 0 3 4 3 2 4 6 5 7 8 8 8 9 11 10 8 7 9 7 6 6
4 5 2 3 2 4 8 5 5 5 6 6 6 6 4 5 4 3 3 3 5 6 6 6 6 5 4 3 4 4 5 6 7 8 9 8 5 3 5 7 7 9 8 8 8 7 4 3 4
0 5 3 4 3 1 5 4 3 6 7 2 6 7 5 5 6 5 5 6 7 7 6 7 7 6 5 4 4 3 2 2 3 6 4 4 2 4 4 4 2 4 5 4 4 2 4 6 5
5 1 1 2 3 2 4 1 5 7 4 7 6 7 5 5 6 6 5 6 7 7 8 9 8 6 5 4 3 1 0 1 2 3 5 2 2 3 3 2 2 2 2 3 2 2 4 3 4
5 3 2 3 3 4 2 8 8 7 7 7 7 6 6 5 4 4 5 5 6 7 8 8 8 6 3 0 2 3 6 6 8 8 9 7 5 3 3 3 2 2 1 1 2 3 3 4 4
2 3 4 5 8 7 7 10 3 7 12 8 7 6 5 5 5 4 6 6 7 7 8 8 8 6 4 6 11 7 7 8 8 8 9 10 7 6 6 5 5 5 4 4 5 3 2 3 3
2 6 8 11 9 5 7 10 15 7 10 10 9 7 5 5 5 6 5 5 7 7 9 9 9 9 11 11 10 8 7 7 7 7 9 10 8 7 7 5 5 5 4 5 4 3 2 2 2
5 4 7 8 8 4 8 9 7 10 13 12 10 8 5 4 3 4 5 4 5 6 8 8 8 11 13 11 9 9 9 9 8 7 9 12 11 11 9 7 7 6 5 5 5 4 3 3 3
8 10 9 5 7 5 11 5 7 10 12 12 10 9 7 6 4 3 3 3 3 5 6 7 8 11 12 10 9 9 10 8 8 8 8 12 11 10 8 6 5 4 4 4 3 5 3 3 4
9 11 9 10 6 7 10 14 7 11 13 12 11 9 8 7 4 3 4 4 4 6 6 7 7 10 10 8 8 8 9 8 8 9 8 10 8 10 7 7 8 7 7 7 5 6 4 6 6
8 9 13 9 3 4 13 15 14 14 14 15 15 12 10 9 6 5 4 5 6 7 6 7 8 9 7 7 7 6 8 9 9 9 11 11 10 11 10 8 8 8 8 9 10 6 7 7 9
12 13 17 14 3 4 13 17 16 16 18 19 17 14 12 10 9 7 6 6 6 7 7 6 6 6 6 6 8 6 8 9 9 8 11 12 12 12 11 10 8 9 8 10 10 9 6 6 9
14 15 15 14 2 11 13 20 24 24 20 17 9 11 11 12 11 9 8 8 8 8 7 6 6 7 7 9 9 9 9 8 8 8 9 10 13 12 10 11 9 9 8 7 9 9 11 6 6
15 13 13 12 7 10 4 10 8 7 13 13 12 12 13 12 10 10 9 8 8 7 6 7 7 8 7 9 9 10 8 9 8 9 9 8 11 12 11 11 10 9 7 8 7 8 7 7 7
8 2 6 9 11 13 16 10 10 16 17 16 14 15 14 13 12 12 10 8 7 7 7 7 7 7 6 6 8 8 11 9 8 8 11 11 10 11 11 10 10 9 7 8 8 8 8 6 5
9 5 3 3 7 10 17 17 8 11 8 12 15 15 16 16 14 12 10 9 8 7 7 7 9 9 9 8 8 11 11 11 8 9 7 7 7 7 9 9 8 8 7 7 6 7 8 6 6
12 8 5 5 7 9 2 13 14 6 8 6 16 18 18 16 15 14 13 11 10 9 8 7 8 9 9 10 10 11 11 11 11 9 7 8 6 6 7 7 7 6 7 6 6 6 6 6 5
20 17 7 7 7 4 2 10 6 3 8 5 10 16 16 16 14 14 13 11 10 9 9 9 9 10 9 9 10 9 10 7 7 7 7 6 6 6 7 6 6 7 6 6 5 4 4 5 4
8 14 10 5 2 4 8 10 8 7 8 9 11 16 18 18 17 16 14 12 12 10 10 10 10 10 10 10 9 9 8 8 8 9 8 6 7 6 6 6 6 5 5 5 4 3 4 3 3
9 9 6 7 6 9 10 15 10 9 15 15 15 17 17 17 17 16 15 15 13 13 11 11 10 10 10 9 9 8 9 9 8 8 7 7 7 7 6 5 5 5 5 6 5 4 4 5 4
9 10 10 5 9 5 6 9 9 15 16 20 17 17 19 19 18 16 15 14 13 12 12 12 11 11 10 9 9 8 8 9 8 7 7 7 7 6 6 5 5 5 4 4 4 4 4 5 4
16 14 20 8 6 6 6 14 3 5 12 15 17 17 18 18 17 16 15 15 14 13 12 12 11 9 9 10 10 8 9 8 8 8 8 7 6 5 6 4 4 3 2 2 2 2 3 4 6
Wind_Direction
285 297 287 255 235 200 125 97 55 106 106 51 57 26 64 40 19 57 88 94 56 148 139 158 153 137 137 134 131 124 118 115 111 109 103 95 91 98 98 89 96 88 77 70 60 51 45 42 40
309 308 242 284 241 164 103 117 107 67 73 95 107 150 96 81 57 96 122 87 43 160 154 159 152 139 141 137 131 130 133 130 124 118 109 104 97 107 104 100 101 90 77 66 60 48 41 38 35
281 282 265 273 297 89 122 144 109 94 82 165 120 357 13 55 53 61 38 83 79 139 160 131 147 148 147 139 144 145 141 138 134 127 119 114 107 104 101 107 91 84 73 64 55 45 40 37 32
280 205 218 255 114 66 99 119 112 129 115 128 338 96 99 45 42 39 52 47 78 121 168 119 141 164 152 141 158 159 156 154 148 141 138 129 116 108 98 113 100 83 74 64 52 44 39 39 39
234 251 227 167 117 112 107 93 129 149 105 111 270 113 84 58 69 56 58 46 68 105 147 138 150 191 175 174 178 172 171 167 159 156 158 135 126 120 111 86 80 88 74 68 56 48 41 37 36
234 278 234 192 149 138 136 123 160 164 126 114 193 132 78 76 54 57 51 60 58 90 102 130 154 247 267 205 220 182 175 178 184 169 169 152 137 125 107 93 88 88 83 76 65 56 48 45 40
282 253 272 246 160 165 151 149 202 153 153 93 23 215 118 81 44 64 72 74 71 58 78 109 169 183 230 281 236 236 201 182 200 186 158 155 147 123 94 89 91 90 87 84 72 61 50 46 44
279 269 223 213 177 186 142 171 99 261 104 110 357 171 157 57 18 144 92 76 65 58 46 34 40 343 229 230 218 253 307 245 189 166 154 157 156 142 136 127 98 97 96 104 93 77 64 56 47
300 244 216 194 203 162 145 188 140 55 242 106 40 30 52 29 64 153 165 100 70 49 33 24 10 344 285 261 177 248 243 348 266 207 196 183 210 177 162 94 116 117 115 115 112 109 96 102 91
268 267 185 16 152 177 162 212 166 218 199 176 136 104 77 74 79 96 55 28 25 22 17 6 352 339 308 225 237 241 239 230 218 223 207 212 224 172 142 124 134 124 131 132 124 114 142 186 37
140 292 117 143 107 82 159 203 213 235 237 249 217 144 105 85 72 66 56 41 14 0 12 5 351 335 302 248 221 196 221 234 251 247 242 205 125 125 122 127 152 135 164 140 121 68 350 45 37
236 179 192 116 142 176 202 329 240 243 49 82 78 99 117 87 66 44 31 19 10 6 7 5 356 339 331 306 221 240 68 271 261 49 28 28 142 146 125 106 152 145 126 110 101 71 47 27 62
246 174 201 154 171 241 319 247 261 247 127 120 114 122 101 84 63 53 27 36 20 14 12 9 7 356 348 316 115 92 50 46 44 46 43 25 25 38 73 45 50 46 30 1 143 103 67 18 7
29 232 228 220 226 227 233 246 246 233 144 158 161 130 107 77 46 55 30 24 18 13 19 16 9 337 133 105 71 68 70 68 57 45 34 40 43 40 41 49 46 47 36 45 47 39 57 65 355
264 264 230 228 218 236 219 244 227 192 169 178 172 157 117 75 60 48 34 28 14 20 31 19 16 32 57 59 59 55 69 77 74 71 50 48 38 68 70 56 48 35 24 50 59 55 36 15 19
245 247 251 106 170 155 208 266 156 148 174 179 177 163 147 102 78 58 38 33 33 44 43 36 51 61 64 66 57 60 57 61 56 53 49 47 48 60 58 61 51 37 44 41 43 18 50 21 3
207 263 210 178 197 147 208 275 138 176 192 182 184 172 170 156 132 85 74 65 61 74 80 77 80 89 92 83 82 74 68 65 62 53 44 50 58 57 62 59 60 72 66 56 42 51 41 17 357
265 223 245 257 142 220 220 249 171 192 208 208 196 181 187 179 161 150 132 114 103 98 95 102 103 105 109 108 107 106 99 85 78 77 69 60 52 57 68 66 55 45 45 38 28 37 47 20 353
296 287 276 277 104 273 255 262 260 187 213 222 213 200 196 186 168 160 136 130 121 113 109 124 125 126 116 102 92 83 92 86 81 73 62 66 68 64 58 53 50 54 49 38 27 28 26 25 357
243 259 262 271 135 255 273 264 260 250 208 223 218 207 201 176 175 154 141 131 121 123 119 115 126 144 139 129 118 108 102 93 94 83 76 71 63 58 69 68 57 50 56 46 34 27 36 42 26
234 244 260 273 160 233 276 267 249 243 244 221 246 243 192 188 172 159 153 143 136 138 134 137 134 123 107 111 112 110 111 107 98 83 74 66 71 69 66 67 65 60 58 56 40 32 30 33 35
248 229 255 267 262 269 166 284 262 229 208 215 219 212 186 183 169 157 154 152 134 132 126 121 117 116 125 140 142 133 118 113 102 97 89 76 68 70 69 69 66 62 54 54 47 41 43 31 31
263 43 237 251 258 274 252 266 263 240 223 209 206 201 195 179 171 163 153 133 122 136 129 130 128 125 121 114 121 110 111 111 111 106 100 91 77 70 70 67 68 63 55 49 47 39 37 39 38
127 113 110 224 251 250 233 226 253 203 227 233 173 187 181 177 172 161 146 145 137 130 130 134 131 119 114 116 118 120 127 128 129 123 113 102 92 77 69 68 65 68 68 61 55 48 40 30 42
201 175 236 234 210 250 103 217 251 180 147 183 178 180 178 176 172 165 162 163 151 145 139 132 130 121 121 124 122 125 126 129 127 126 120 119 105 93 85 85 80 73 70 65 63 56 52 38 36
198 201 207 248 225 253 65 231 235 256 104 113 176 173 172 176 178 174 169 164 156 153 157 152 145 134 134 129 124 123 126 126 118 114 114 114 116 111 109 95 84 74 62 59 56 56 43 24 19
176 222 260 288 183 269 212 241 261 158 175 167 166 170 177 182 183 178 171 169 165 170 169 165 158 151 148 141 139 134 129 130 125 123 123 128 123 121 120 114 96 87 73 57 47 50 44 16 3
220 159 177 218 227 238 247 249 235 212 201 181 178 183 184 186 184 180 177 177 175 177 174 173 170 166 152 152 148 142 137 133 139 136 134 135 131 137 122 108 101 83 65 41 30 34 30 7 0
178 206 225 253 229 250 266 249 188 203 195 188 185 187 185 187 186 182 181 181 178 177 177 181 180 172 165 164 152 143 144 151 152 148 148 149 144 140 122 114 100 75 60 46 32 24 2 349 336
240 217 207 220 186 246 274 259 146 185 181 176 186 182 184 187 184 181 181 179 180 184 183 184 184 179 177 169 163 163 162 163 167 165 160 154 144 134 123 114 103 91 78 52 13 346 332 324 316